Regional Weather Roundup
Issued by NWS

Home | Current Version | Previous Version | Text Only | Print | Product List | Glossary On
Versions: 1 2 3 4 5 6 7 8 9 10 11 12 13 14 15 16 17 18 19 20 21 22 23 24 25 26 27 28 29 30 31 32 33 34 35 36 37 38 39 40 41 42 43 44 45 46 47 48 49 50
000
ASUS43 KDMX 302207
RWRIA

WEATHER ROUNDUP FOR IOWA
NATIONAL WEATHER SERVICE DES MOINES IA
500 PM CDT THU JUL 30 2015

NOTE: "FAIR" INDICATES FEW OR NO CLOUDS BELOW 12,000 FEET WITH NO
SIGNIFICANT WEATHER AND/OR OBSTRUCTIONS TO VISIBILITY.

* - THESE STATIONS ARE NOT NWS STATIONS...THUS NOT UNDER NWS
QUALITY CONTROL.  THEY ALSO DO NOT REPORT WEATHER SUCH
AS PRECIPITATION OR FOG.

IAZ001>003-012>014-020>022-031>034-043>046-302300-
   NORTHWEST IOWA

CITY           SKY/WX    TMP DP  RH WIND       PRES   REMARKS
CARROLL *      SUNNY     84  66  54 W9        30.13F HX  86
CHEROKEE *     SUNNY     84  64  51 W8        30.12F HX  86
DENISON *      SUNNY     82  66  57 W8G15     30.12F HAZE    HX  85
LE MARS *      SUNNY     84  68  58 SW9       30.13F HX  87
ORANGE CITY *  SUNNY     82  66  57 SW9       30.13F HX  85
SHELDON *      SUNNY     84  64  51 W5        30.12S HX  86
SIOUX CITY     SUNNY     88  66  48 W8        30.11F HX  90
SPENCER        SUNNY     86  61  42 W7        30.12F HX  86
STORM LAKE *   SUNNY     82  68  61 W10       30.14F HX  85
$$

IAZ055>058-069>071-079>083-090>094-302300-
   SOUTHWEST IOWA

CITY           SKY/WX    TMP DP  RH WIND       PRES   REMARKS
ATLANTIC *     SUNNY     84  64  51 W6G13     30.15S HX  86
AUDUBON *      SUNNY     84  64  51 W7        30.16F HX  86
CLARINDA *     SUNNY     86  64  48 SW8       30.17S HX  87
COUNCIL BLFS * SUNNY     88  61  40 SW9G16    30.15F HX  88
CRESTON *      SUNNY     84  63  48 W10       30.17F HX  85
HARLAN  *      SUNNY     84  66  54 W9        30.18F HX  86
LAMONI         SUNNY     86  64  47 W9        30.16F HX  87
RED OAK *      SUNNY     86  63  45 W7        30.15F HX  87
SHENANDOAH *   SUNNY     86  68  54 SW6       30.15F HX  89
$$

IAZ047>049-059>061-072>074-084-302300-
   CENTRAL IOWA

CITY           SKY/WX    TMP DP  RH WIND       PRES   REMARKS
AMES           SUNNY     84  65  52 W14       30.11F HX  86
ANKENY *       SUNNY     86  63  45 W13G18    30.11F HX  87
CHARITON *     SUNNY     86  63  45 W8        30.14F HX  87
DES MOINES     MOSUNNY   88  56  33 W15G21    30.11F HX  86
GRINNELL*      SUNNY     86  64  48 W10       30.11F HX  87
KNOXVILLE *    SUNNY     84  63  48 W9        30.11F HX  85
MARSHALLTOWN   SUNNY     84  67  56 W12       30.10F HX  86
PELLA *        SUNNY     86  68  54 W8        30.12F HX  89
PERRY *          N/A     84  66  54 W10       30.13S HX  86
$$

IAZ004>006-015-016-023>025-035-036-302300-
   NORTH CENTRAL IOWA

CITY           SKY/WX    TMP DP  RH WIND       PRES   REMARKS
ALGONA *       SUNNY     84  63  48 W8        30.11F HX  85
CLARION *      SUNNY     84  66  54 W9        30.11F HX  86
ESTHERVILLE    SUNNY     83  60  45 W7        30.11F HX  83
FORT DODGE *   SUNNY     84  66  54 NW6       30.13S HX  86
MASON CITY     SUNNY     85  58  39 W10       30.11F HX  84
FOREST CITY *  SUNNY     81  59  47 W6        30.11S HX  81
IOWA FALLS *     N/A     84  64  51 NW7       30.12F HX  86
$$

IAZ007>011-017>019-026>030-037>042-050>054-066-302300-
   NORTHEAST IOWA

CITY           SKY/WX    TMP DP  RH WIND       PRES   REMARKS
CEDAR RAPIDS   SUNNY     84  69  60 W14       30.08F HX  88
CHARLES CITY * SUNNY     82  63  51 NW10      30.10F HX  83
CLINTON *      SUNNY     84  64  51 W14       30.08F HX  86
DECORAH *      SUNNY     82  55  39 VRB8G18   30.07S HX  82
DUBUQUE        SUNNY     85  58  39 W17G24    30.07F HX  84
MONTICELLO *   SUNNY     86  64  48 W12G20    30.07S HX  87
OELWEIN *      SUNNY     82  63  51 NW8G20    30.09F HX  83
WATERLOO       SUNNY     85  62  46 NW9       30.07F HX  85
$$

IAZ064-065-067-068-078-302300-
   EAST CENTRAL IOWA

CITY           SKY/WX    TMP DP  RH WIND       PRES   REMARKS
DAVENPORT      SUNNY     85  66  53 W12       30.07F HX  87
IOWA CITY      SUNNY     87  64  46 W15       30.09F HX  88
MT. PLEASANT * SUNNY     88  54  31 W9G17     30.10F HX  86
MUSCATINE *    SUNNY     88  64  45 W16       30.08F HX  89
QUAD CITIES    SUNNY     89  60  37 W12G21    30.06F HX  89
$$

IAZ062-063-075>077-085>089-095>099-302300-
   SOUTHEAST IOWA

CITY           SKY/WX    TMP DP  RH WIND       PRES   REMARKS
BURLINGTON     SUNNY     87  64  46 W12       30.10F HX  88
FAIRFIELD *    SUNNY     84  63  48 W14G20    30.11F HX  85
FORT MADISON * SUNNY     84  64  51 W9        30.11F HX  86
KEOKUK *       SUNNY     88  63  42 NW10      30.11S HX  88
OSKALOOSA *      N/A     84  66  54 W9        30.12S HX  86
CENTERVILLE *  SUNNY     84  64  51 W9        30.16S HX  86
OTTUMWA        SUNNY     85  65  51 NW9       30.10F HX  86
WASHINGTON *   SUNNY     84  66  54 W13G18    30.11F HX  86
$$

ABBREVIATIONS USED IN REMARKS
   TC - TEMPERATURES IN CELSIUS
  WCI - WIND CHILL INDEX
   HX - HEAT INDEX
  VSB - VISIBILITY
$$




USA.gov is the U.S. government's official web portal to all federal, state and local government web resources and services.